Regional Weather Roundup
Issued by NWS

Home | Current Version | Previous Version | Graphics & Text | Print | Product List | Glossary On
Versions: 1 2 3 4 5 6 7 8 9 10 11 12 13 14 15 16 17 18 19 20 21 22 23 24 25 26 27 28 29 30 31 32 33 34 35 36 37 38 39 40 41 42 43 44 45 46 47 48 49 50
000
ASUS43 KMKX 221259
RWRWI

WISCONSIN REGIONAL WEATHER ROUNDUP
NATIONAL WEATHER SERVICE MILWAUKEE/SULLIVAN WI
700 AM CST SUN JAN 22 2017

NOTE: "FAIR" INDICATES FEW OR NO CLOUDS BELOW 12,000 FEET WITH NO
SIGNIFICANT WEATHER AND/OR OBSTRUCTIONS TO VISIBILITY.

WIZ001-002-006>008-014>016-023>028-221400-
NORTHWEST WISCONSIN

CITY           SKY/WX    TMP DP  RH WIND       PRES   REMARKS
SUPERIOR ARPT  DRIZZLE   34  34 100 CALM      29.63R
ASHLAND        CLOUDY    34  33  96 NW3       29.61R FOG
HAYWARD        CLOUDY    34  33  96 CALM      29.60R FOG
SIREN          CLOUDY    34  34  99 N5        29.63R FOG     WCI  30
CUMBERLAND     CLOUDY    32  32 100 NW6       29.60R FOG     WCI  26
RICE LAKE      CLOUDY    34  34 100 CALM      29.62R
CHETEK         CLOUDY    33  33 100 CALM      29.60R FOG
LADYSMITH      FOG       35  34  98 CALM      29.60R VSB 1
EAU CLAIRE     FOG       34  32  92 CALM      29.60R VSB 3/4
MENOMONIE        N/A    N/A N/A N/A MISG        N/A
NEW RICHMOND   CLOUDY    33  33 100 N6        29.62R FOG     WCI  28
OSCEOLA        FOG       34  34 100 NW3       29.65R VSB 1/2
$$

WIZ003>005-009-010-017-018-221400-
NORTH CENTRAL WISCONSIN

CITY           SKY/WX    TMP DP  RH WIND       PRES   REMARKS
MANITOWISH WTR FOG       33  33 100 NW3       29.55R VSB 1/4
ARBOR VITAE    FOG       37  36  98 CALM      29.55R VSB 1/2
WOODRUFF       FOG       37  36  98 CALM      29.55R VSB 1/2
RHINELANDER    FOG       34  34 100 W3        29.55R VSB 3/4
EAGLE RIVER    FOG       33  33 100 CALM      29.54R VSB 1
LAND O LAKES   FOG       35  35 100 CALM      29.56R VSB 1/2
PHILLIPS       CLOUDY    33  33 100 CALM      29.56R FOG
TOMAHAWK       FOG       33  32  97 CALM      29.56R VSB 3/4
MEDFORD        FOG       33  32  99 NW5       29.56R VSB 1/4 WCI  28
MERRILL        CLOUDY    33  33 100 CALM        N/A  FOG
$$

WIZ029-030-035-036-043>047-221400-
CENTRAL WISCONSIN

CITY           SKY/WX    TMP DP  RH WIND       PRES   REMARKS
WAUSAU         CLOUDY    35  35 100 CALM      29.56R FOG
MOSINEE        FOG       34  34 100 CALM      29.58R VSB 1/2
MARSHFIELD     FOG       34  34 100 W3        29.57R VSB 1/2
STEVENS POINT  FOG       34  34 100 CALM      29.58R VSB 1
WAUPACA        FOG       38  37  97 CALM      29.59R VSB 1/2
WAUTOMA        CLOUDY    33  33 100 CALM      29.60R FOG
WISC RAPIDS    FOG       36  36 100 NW5       29.60R VSB 1/2 WCI  32
CAMP DOUGLAS   FOG       36  36 100 W3        29.59R VSB 1/2
$$

WIZ011>013-019>022-031-037>040-048>050-221400-
NORTHEAST WISCONSIN

CITY           SKY/WX    TMP DP  RH WIND       PRES   REMARKS
ANTIGO         FOG       33  33 100 CALM      29.56R VSB 1/4
SHAWANO        FOG       36  35  96 CALM      29.59R VSB 1/2
OCONTO         CLOUDY    33  32  99 CALM      29.59R VSB 1/4
STURGEON BAY   FOG       37  37 100 S5        29.60R VSB 1/4 WCI  33
GREEN BAY      FOG       37  37 100 S3        29.59R VSB 1/4
MANITOWOC      FOG       37  37 100 MISG      29.60R VSB 1/4
APPLETON       FOG       36  36 100 VRB5      29.57R VSB 1/4 WCI  32
CLINTONVILLE   FOG       34  34 100 CALM      29.59R VSB 1/4
OSHKOSH        FOG       36  35  96 CALM      29.59R VSB 1/4
$$

WIZ032>034-041-042-053>061-221400-
SOUTHWEST WISCONSIN

CITY           SKY/WX    TMP DP  RH WIND       PRES   REMARKS
LA CROSSE      FOG       38  35  89 CALM      29.61R VSB 3/4
SPARTA         FOG       35  35 100 CALM      29.61R VSB 1/4
VIROQUA        CLOUDY    35  35 100 W5        29.58S WCI  31
BOSCOBEL       CLOUDY    36  35  96 CALM      29.62R FOG
PRAIRIE DU CHI CLOUDY    33  33  97 CALM      29.61R FOG
PLATTEVILLE    CLOUDY    32  32 100 CALM      29.61R VSB 1
$$

WIZ056-057-062-063-064-067-068-221400-
SOUTH CENTRAL WISCONSIN

CITY           SKY/WX    TMP DP  RH WIND       PRES   REMARKS
REEDSBURG      CLOUDY    35  35 100 S3        29.60R FOG
BARABOO/DELLS  FOG       36  35  99 CALM      29.58R VSB<1/4
LONE ROCK      NOT AVBL
MINERAL POINT  CLOUDY    36  36 100 CALM      29.60R FOG
MADISON        CLOUDY    37  36  96 CALM      29.61R FOG
MIDDLETON      CLOUDY    38  38 100 SW3       29.60R
WATERTOWN      CLOUDY    37  37 100 CALM      29.60R FOG
MONROE         FOG       34  34 100 NW7       29.59R VSB 1/4 WCI  28
JANESVILLE     NOT AVBL
$$

WIZ051-052-058>065-066-070>072-221400-
SOUTHEAST WISCONSIN

CITY           SKY/WX    TMP DP  RH WIND       PRES   REMARKS
MILWAUKEE      CLOUDY    40  38  93 CALM      29.61R FOG
WAUKESHA       FOG       37  37 100 SW3       29.61R VSB 1
MILWAUKEE/TIMM CLOUDY    37  36  93 NW3       29.61R FOG
RACINE         CLOUDY    38  36  92 W3        29.62R FOG
KENOSHA        FOG       38  36  92 CALM      29.61R VSB 3/4
FOND DU LAC    FOG       37  35  92 CALM      29.60R VSB 1/2
SHEBOYGAN      FOG       36  35  96 CALM      29.61R VSB 1/2
WEST BEND      CLOUDY    37  37 100 CALM      29.60R FOG
JUNEAU         FOG       36  36 100 CALM      29.60R VSB<1/4
$$

LSZ147-162-221400-
LAKE SUPERIOR

STATION/POSITION TIME  TEMP    WIND        PRES    WAVE
                       AIR SEA DIR/SP/G            HT/PER
                 (UTC) (F)     (DEG/KT/KT) (MB)    (FT/S)
DEVILS ISLAND    1200   35      30/ 14/ 15 1002.9R
PORT WING        1230   35      30/  9/ 11 1003.4R
SAXON HARBOR     1240   33     220/  1/  2 1002.4R
$$

LMZ867-665-643>646-221400-
LAKE MICHIGAN

STATION/POSITION TIME  TEMP    WIND        PRES    WAVE
                       AIR SEA DIR/SP/G            HT/PER
                 (UTC) (F)     (DEG/KT/KT) (MB)    (FT/S)
NORTHPORT PIER   1240   35        CALM     1002.0R
SISTER BAY       1220   36        CALM       N/A
KEWAUNEE LAKESHO 1230   38      CALM  /  3 1001.6R
SHEBOYGAN LAKESH 1200   40     340/  2/  2 1002.2R
PORT WASHINGTON  1230   39      CALM  /  2 1003.7R
KENOSHA   LAKESH 1200   36      CALM  /  4 1002.7
$$

TC  - TEMPERATURE IN CELSIUS
VSB - VISIBILITY IN STATUTE MILES
WCI - WIND CHILL INDEX
HX  - HEAT INDEX





USA.gov is the U.S. government's official web portal to all federal, state and local government web resources and services.